#timestamp,LO_Frequency,Hit,StdDev 
1664492415.7,286047001.1,N
1664492435.5,286047002.5,N
1664492455.4,286047002.7,N
1664492475.2,286047002.3,N
1664492495.0,286047003.9,N
1664492495.9,286047003.9,N
1664492515.8,286047001.8,N
1664492535.6,286047001.3,N
1664492555.5,286047003.4,N
1664492575.3,286047003.4,N
1664492595.1,286047004.6,N
1664492615.9,286047005.0,N
1664492635.7,286047003.2,N
1664492655.6,286047004.0,N
1664492675.4,286047004.1,N
1664492725.3,286047001.5,E
1664492735.2,286047002.2,N
1664492755.0,286046999.7,P
1664492755.9,286046999.7,N
1664492775.8,286047001.4,N
1664492795.6,286047001.7,N
1664492815.4,286047004.0,Y
1664492835.3,286047001.3,P
1664492855.1,286047001.5,P
1664492875.8,286047001.5,P
1664492895.7,286047004.3,Y
1664492915.5,286047002.4,P
1664492935.4,286047002.8,P
1664492955.2,286046998.2,N
1664492975.1,286046999.3,N
1664492976.0,286046999.3,N
1664492995.8,286046999.0,N
1664493015.6,286046999.2,N
1664493035.5,286046999.2,N
1664493055.3,286046998.1,N
1664493075.2,286047000.6,N
1664493095.9,286047001.1,N
1664493115.7,286047000.4,N
1664493135.6,286047000.0,N
1664493155.4,286047002.4,N
1664493175.2,286047000.1,N
1664493195.1,286047000.2,N
1664493196.0,286047000.2,N
1664493215.8,286046999.7,N
1664493235.7,286047002.6,N
1664493255.5,286047000.2,N
1664493275.3,286047001.9,N
1664493295.2,286046999.9,N
1664493315.0,286046999.9,N
1664493315.9,286046999.9,N
1664493335.8,286046999.9,N
1664493355.6,286047000.6,N
1664493375.4,286047000.5,N
1664493395.3,286047000.4,N
1664493415.1,286047001.2,N
1664493435.8,286046996.9,N
1664493455.7,286046996.9,N
1664493475.5,286047001.2,N
1664493495.4,286047000.2,N
1664493515.2,286047002.8,N
1664493535.0,286047002.7,N
1664493535.9,286047002.7,N
1664493555.8,286047003.1,N
1664493575.6,286047005.9,Y
1664493595.4,286047004.0,P
1664493615.3,286047000.1,N
1664493635.1,286047000.4,N
1664493655.9,286047000.9,N
1664493675.7,286046998.3,N
1664493695.5,286047000.7,N
1664493715.4,286046999.2,N
1664493735.2,286046998.8,N
1664493755.0,286046998.9,N
1664493756.0,286046998.9,N
1664493775.8,286046998.6,N
1664493795.6,286046999.8,N
1664493815.5,286047000.4,N
1664493835.3,286047002.3,N
1664493855.1,286047003.9,N
1664493875.9,286047002.4,N
1664493895.7,286047004.2,N
1664493915.6,286047003.0,N
1664493935.4,286047004.0,N
1664493955.2,286047003.7,N
1664493975.1,286047003.1,N
1664493976.0,286047003.1,N
1664493995.8,286047003.1,N
1664494015.6,286047005.5,N
1664494035.5,286047006.0,N
1664494055.3,286047003.9,N
1664494075.2,286047003.1,N
1664494095.9,286047003.7,N
1664494115.7,286047001.3,N
1664494135.6,286047003.9,N
1664494155.4,286047003.4,N
1664494175.2,286047004.3,N
1664494195.1,286047003.7,N
1664494196.0,286047003.7,N
1664494215.8,286047003.7,N
1664494235.7,286047001.7,N
1664494255.5,286047002.1,N
1664494275.3,286046998.4,N
1664494295.2,286046999.4,N
1664494315.0,286046999.2,N
1664494315.9,286046999.2,N
1664494335.8,286047001.1,N
1664494355.6,286046999.4,N
1664494375.4,286047000.6,N
1664494395.3,286047002.5,N
1664494415.1,286046999.8,N
1664494435.8,286047002.7,N
1664494455.7,286047002.7,N
1664494475.5,286047002.7,N
1664494495.4,286047001.6,N
1664494515.2,286047000.1,N
1664494535.0,286047002.8,N
1664494535.9,286047002.8,N
1664494555.8,286047002.3,N
1664494575.6,286047001.6,N
1664494595.4,286046999.8,N
1664494615.3,286047001.9,N
1664494635.1,286047005.9,Y
1664494655.9,286047002.6,P
1664494675.7,286047002.1,P
1664494695.6,286047000.0,N
1664494715.4,286046998.6,N
1664494735.2,286047001.1,N
1664494755.1,286046998.2,N
1664494756.0,286046998.2,N
1664494775.8,286047001.2,N
1664494795.6,286047002.8,N
1664494815.5,286047000.2,N
1664494835.3,286046998.7,N
1664494855.2,286046998.1,N
1664494875.9,286046996.7,N
1664494895.7,286046996.6,N
1664494915.6,286046998.9,N
1664494935.4,286046998.3,N
1664494955.3,286047000.8,N
1664494975.1,286047001.1,N
1664494976.0,286047001.1,N
1664494995.8,286047000.7,N
1664495015.7,286046998.7,N
1664495035.5,286047001.0,N
1664495055.3,286046999.8,N
1664495075.2,286046999.8,N
1664495095.0,286047002.4,N
1664495095.9,286047002.4,N
1664495115.8,286047002.2,N
1664495135.6,286047001.6,N
1664495155.4,286047002.2,N
1664495175.3,286047000.0,N
1664495195.1,286046998.8,N
1664495215.9,286046999.3,N
1664495235.7,286046999.2,N
1664495255.5,286046998.1,N
1664495275.4,286046998.2,N
1664495295.2,286046998.2,N
1664495315.0,286047000.4,N
1664495315.9,286047000.4,N
1664495335.8,286047000.9,N
1664495355.6,286047000.9,N
1664495375.5,286046999.7,N
1664495395.3,286047001.3,N
1664495415.1,286047004.3,N
1664495435.9,286047001.4,N
1664495455.7,286047002.6,N
1664495475.6,286047001.9,N
1664495495.4,286047004.4,N
1664495515.2,286047001.9,N
1664495535.1,286047001.3,N
1664495536.0,286047001.3,N
1664495555.8,286047004.2,N
1664495575.6,286047003.5,N
1664495595.5,286047002.4,N
1664495615.3,286047000.1,N
1664495635.2,286047000.3,N
1664495655.9,286047000.5,N
1664495675.7,286046998.2,N
1664495695.6,286047000.8,N
1664495715.4,286047000.1,N
1664495735.3,286047000.5,N
1664495755.1,286047000.4,N
1664495756.0,286047000.4,N
1664495775.8,286047000.5,N
1664495795.7,286047000.5,N
1664495815.5,286047002.2,N
1664495835.3,286047002.2,N
1664495855.2,286047003.6,N
1664495875.0,286047001.7,N
1664495875.9,286047001.7,N
1664495895.8,286047000.2,N
1664495915.6,286047002.5,N
1664495935.4,286047001.3,N
1664495955.3,286047003.7,N
1664495975.1,286047004.4,Y
1664495995.9,286047001.3,P
